Regional Weather Roundup
Issued by NWS

Home | Current Version | Previous Version | Text Only | Print | Product List | Glossary Off
Versions: 1 2 3 4 5 6 7 8 9 10 11 12 13 14 15 16 17 18 19 20 21 22 23 24 25 26 27 28 29 30 31 32 33 34 35 36 37 38 39 40 41 42 43 44 45 46 47 48 49 50

000
ASUS43 KLMK 180710
RWRKY
KENTUCKY REGIONAL WEATHER ROUNDUP
NATIONAL WEATHER SERVICE LOUISVILLE KY
200 AM EST THU JAN 18 2018

NOTE "FAIR" INDICATES FEW OR NO CLOUDS BELOW 12,000 FEET
WITH NO SIGNIFICANT WEATHER AND/OR OBSTRUCTIONS TO VISIBILITY.

KYZ001>023-026-027-061>063-070>075-180800-
WESTERN AND SOUTH CENTRAL KENTUCKY

CITY           SKY/WX    TMP DP  RH WIND       PRES   REMARKS
PADUCAH        FAIR       9   4  80 SW6       30.53F WCI  -1
HENDERSON      FAIR       6   3  87 SW6       30.51F WCI  -4
OWENSBORO      FAIR       6   3  87 SW8       30.51F WCI  -7
HOPKINSVILLE   FAIR       6   3  86 SW5       30.52F WCI  -3
BOWLING GREEN  FAIR       8   4  83 SW6       30.53F WCI  -2
GLASGOW        FAIR       1  -1  88 CALM      30.50F FOG
$$

KYZ024-025-028>034-038-045-046-053-180800-
NORTH CENTRAL KENTUCKY

CITY           SKY/WX    TMP DP  RH WIND       PRES   REMARKS
LOUISVILLE/SDF FAIR      14   7  73 SW6       30.47F WCI   5
LOUISVILLE/LOU FAIR      11   8  88 S5        30.48F WCI   3
FORT KNOX      FAIR       8   5  87 SW6       30.45F WCI  -2
$$

KYZ035>037-039>044-047>052-055>060-089>105-180800-
NORTHEAST KENTUCKY

CITY           SKY/WX    TMP DP  RH WIND       PRES   REMARKS
LEXINGTON      FAIR       7   2  80 SW6       30.45S WCI  -3
COVINGTON      FAIR      11   8  88 SW8       30.39F WCI  -1
FRANKFORT      FAIR       8   3  80 CALM      30.44F
$$

KYZ054-064>069-076>088-106>120-180800-
SOUTHEAST KENTUCKY

CITY           SKY/WX    TMP DP  RH WIND       PRES   REMARKS
JACKSON        MOCLDY     9   5  84 SW5       30.41F WCI   1
LONDON         FAIR       3   0  87 CALM      30.44F
SOMERSET       MOCLDY     3   1  92 CALM      30.49F
MIDDLESBORO    FAIR       8   6  91 CALM      30.46F
MONTICELLO     FAIR      -4  -8  83 W8        30.51  WCI -19
$$





USA.gov is the U.S. government's official web portal to all federal, state and local government web resources and services.